Location: Newark
(45.4422°N, 16.2769°E)
Time: 12:13:14
(UTC+00:00)

Vanguard 2 - Pass Details

Date: 17 December 2019
Orbit: 553 x 2938 km, 32.9° (Epoch: 25 January)

Event Time Altitude Azimuth Distance (km) Brightness Sun altitude
Rises 03:37:03 0° 273° (W) 6,332 - -29.1°
Reaches altitude 10° 03:41:27 10° 266° (W) 5,522 - -28.3°
Exits shadow 03:49:11 28° 245° (WSW) 4,391 10.8 -26.9°
Maximum altitude 03:56:18 37° 208° (SSW) 3,949 10.9 -25.7°
Drops below altitude 10° 04:10:38 10° 149° (SSE) 5,301 12.3 -23.2°
Sets 04:14:48 0° 141° (SE) 6,059 12.9 -22.5°
